Terminal Aerodrome Forecast
Issued by NWS

Home | Current Version | Previous Version | Text Only | Print | Product List | Glossary On
Versions: 1 2 3 4 5 6 7 8 9 10 11 12 13 14 15 16 17 18 19 20 21 22 23 24 25 26 27 28 29 30 31 32 33 34 35 36 37 38 39 40 41 42
000
FTUS42 KMFL 201740
TAFMIA
TAF
KMIA 201740Z 2018/2118 14008KT P6SM SCT035 SCT250
     FM210000 14004KT P6SM SCT250
     FM210600 00000KT P6SM BKN250
     FM211200 13006KT P6SM BKN250=

USA.gov is the U.S. government's official web portal to all federal, state and local government web resources and services.